• Join FlightAware (Why Join?)
  • Login
  • US Flag 
06:21PM EDT


 

Airport Tracker/Info


-or-


 

Live Flight TrackerFlight Track Log ✈ AWE3327 ✈ 19-Apr-2013 ✈ KBUF - KDCA

Flight Track Log - Related Links

Times and Time Zones

All times are in EDT time to prevent confusion due to time zone crossing. See the AWE3327 flight status page for this flight to view local times or setup timezone preferences in your user account.

Time Position Orientation Groundspeed Altitude Reporting Facility
EDT Latitude Longitude Course Direction KTS MPH feet Rate Location/Type
05:47AM 42.9333 -78.7500 205° Southwest 141 162 1,800  Level Buffalo TRACON
05:48AM 42.9000 -78.7667 200° South 144 166 3,400 2,040 Climbing Buffalo TRACON
05:49AM 42.6507 -78.6031 175° South  Level Estimated
05:49AM 42.8189 -78.7575 175° South 242 278 6,300  Level Cleveland Center
05:50AM 42.5541 -78.5609 173° South  Level Estimated
05:50AM 42.7500 -78.7425 171° South 254 292 9,300  Level Cleveland Center
05:51AM 42.4576 -78.5188 180° South  Level Estimated
05:51AM 42.6831 -78.7275 171° South 254 292 11,900  Level Cleveland Center
05:52AM 42.3609 -78.4768 174° South  Level Estimated
05:52AM 42.6097 -78.7128 172° South 260 299 14,400  Level Cleveland Center
05:53AM 42.2686 -78.5337 205° Southwest  Level FlightAware Approximate
05:53AM 42.5367 -78.6981 172° South 265 305 16,600  Level Cleveland Center
05:54AM 42.4592 -78.6836 172° South 277 319 19,000 2,160 Climbing Cleveland Center
05:55AM 42.3756 -78.6692 173° South 289 333 21,000 1,620 Climbing Cleveland Center
05:56AM 42.2917 -78.6408 166° South 305 351 22,300 1,380 Climbing Cleveland Center
05:57AM 42.2033 -78.5986 161° South 319 367 23,800 1,440 Climbing Cleveland Center
05:58AM 42.1194 -78.5592 161° South 347 399 25,200 1,440 Climbing Cleveland Center
05:59AM 42.0269 -78.5147 160° South 352 405 26,700 900 Climbing Cleveland Center
06:00AM 41.9344 -78.4703 160° South 352 405 27,000 120 Climbing Cleveland Center
06:01AM 41.8461 -78.4314 162° South 352 405 27,000  Level Cleveland Center
06:02AM 41.7556 -78.3869 160° South 352 405 27,000  Level Cleveland Center
06:04AM 41.5581 -78.2928 160° South 344 396 27,000  Level New York Center
06:05AM 41.4669 -78.2519 161° South 344 396 27,000  Level New York Center
06:06AM 41.3739 -78.2058 160° South 344 396 27,000  Level New York Center
06:07AM 41.2850 -78.1628 160° South 349 402 27,000  Level New York Center
06:09AM 41.1897 -78.1192 161° South 355 409 27,000  Level New York Center
06:09AM 41.0986 -78.0764 161° South 355 409 27,000  Level New York Center
06:10AM 41.0053 -78.0333 161° South 355 409 27,000  Level New York Center
06:11AM 40.9144 -77.9878 159° South 355 409 27,000 -540 Level New York Center
06:13AM 40.8361 -77.9056 142° Southeast 355 409 26,000 -1,440 Descending New York Center
06:13AM 40.7600 -77.8153 138° Southeast 361 415 24,200 -3,600 Descending New York Center
06:14AM 40.6861 -77.7283 138° Southeast 366 421 19,000 -1,500 Descending New York Center
06:15AM 40.6156 -77.6500 140° Southeast 355 409 21,200 300 Climbing New York Center
06:17AM 40.5472 -77.5722 139° Southeast 342 394 19,700 -1,140 Descending New York Center
06:17AM 40.4686 -77.4881 141° Southeast 336 387 19,000 -360 Descending New York Center
06:18AM 40.4056 -77.4192 140° Southeast 336 387 19,000  Level New York Center
06:19AM 40.3314 -77.3331 138° Southeast 336 387 19,000  Level New York Center
06:20AM 40.2664 -77.2617 140° Southeast 336 387 19,000  Level New York Center
06:22AM 40.1919 -77.1758 139° Southeast 336 387 19,000  Level New York Center
06:23AM 40.1211 -77.0986 140° Southeast 336 387 19,000  Level New York Center
06:24AM 40.0522 -77.0192 139° Southeast 336 387 19,000  Level New York Center
06:24AM 39.9811 -76.9450 141° Southeast 336 387 19,000  Level New York Center
06:26AM 39.9122 -76.8658 139° Southeast 336 387 19,000 -840 Level New York Center
06:27AM 39.7667 -76.7000 139° Southeast 323 372 16,500 -1,260 Descending Potomac TRACON
06:28AM 39.7167 -76.6500 142° Southeast 303 349 15,400 -1,320 Descending Potomac TRACON
06:29AM 39.6333 -76.6167 163° South 287 330 14,100 -1,260 Descending Potomac TRACON
06:30AM 39.5667 -76.6333 191° South 271 312 12,900 -1,140 Descending Potomac TRACON
06:31AM 39.5000 -76.6333 180° South 261 300 12,000 -480 Descending Potomac TRACON
06:32AM 39.4167 -76.6333 180° South 261 300 12,000  Level Potomac TRACON
06:33AM 39.3500 -76.6500 191° South 263 303 12,000 -180 Level Potomac TRACON
06:34AM 39.2833 -76.6500 180° South 262 302 11,700 -840 Descending Potomac TRACON
06:35AM 39.2167 -76.6667 191° South 258 297 10,500 -900 Descending Potomac TRACON
06:36AM 39.1500 -76.7000 201° Southwest 254 292 10,000 -300 Descending Potomac TRACON
06:37AM 39.1333 -76.7667 252° West 260 299 10,000 -360 Level Potomac TRACON
06:38AM 39.1000 -76.8500 243° Southwest 238 274 9,400 -1,020 Descending Potomac TRACON
06:39AM 39.0833 -76.9333 256° West 231 266 8,000 -1,380 Descending Potomac TRACON
06:40AM 39.0667 -77.0000 252° West 209 241 6,800 -1,740 Descending Potomac TRACON
06:41AM 39.0333 -77.0500 229° Southwest 196 226 4,800 -1,800 Descending Potomac TRACON
06:42AM 39.0167 -77.1167 252° West 184 212 3,200 -900 Descending Potomac TRACON
06:43AM 38.9833 -77.1500 218° Southwest 170 196 3,000 -300 Descending Potomac TRACON
06:44AM 38.9500 -77.1333 159° South 179 206 2,600 -900 Descending Potomac TRACON
06:45AM 38.9167 -77.1000 142° Southeast 158 182 1,300 -480 Descending Potomac TRACON
06:46AM 38.8833 -77.0667 142° Southeast 133 153 1,800 780 Climbing Potomac TRACON
06:47AM 38.8500 -77.0333 142° Southeast 175 201 2,800 600 Climbing Potomac TRACON
06:48AM 38.8000 -77.0333 180° South 199 229 3,000 60 Climbing Potomac TRACON
06:49AM 38.7500 -77.0667 207° Southwest 224 258 3,000  Level Potomac TRACON